Location: Oklahoma City
(35.4680°N, 97.5160°W)
Time: 12:11:31
(UTC-06:00)

ISS - Visible Passes

Search period start: 20 January 2017 00:00
Search period end: 30 January 2017 00:00
Orbit: 399 x 410 km, 51.6° (Epoch: 21 January)

Date Brightness Start Highest point End Pass type
(mag) Time Alt. Az. Time Alt. Az. Time Alt. Az.
20 Jan -2.2 05:41:59 43° ESE 05:41:59 43° ESE 05:44:20 10° SE visible
21 Jan -1.7 06:25:01 19° SW 06:25:08 19° SW 06:27:30 10° S visible
22 Jan -0.7 05:35:26 15° SSE 05:35:26 15° SSE 05:36:07 10° SSE visible
25 Jan -1.5 19:31:02 10° SSW 19:32:36 22° S 19:32:36 22° S visible
26 Jan -1.3 18:39:50 10° SSE 18:41:51 15° SE 18:43:01 13° ESE visible
26 Jan -0.2 20:14:58 10° WSW 20:15:42 15° WSW 20:15:42 15° WSW visible
27 Jan -3.5 19:22:28 10° SW 19:25:44 86° NW 19:26:01 72° NE visible
28 Jan -2.7 18:30:22 10° SSW 18:33:29 41° SE 18:36:15 12° ENE visible
28 Jan -0.5 20:07:38 10° W 20:08:55 16° WNW 20:08:55 16° WNW visible
29 Jan -1.9 19:14:36 10° WSW 19:17:35 32° NW 19:19:03 22° N visible
